Regional Weather Roundup
Issued by NWS

Home | Current Version | Previous Version | Text Only | Print | Product List | Glossary On
Versions: 1 2 3 4 5 6 7 8 9 10 11 12 13 14 15 16 17 18 19 20 21 22 23 24 25 26 27 28 29 30 31 32 33 34 35 36 37 38 39 40 41 42 43 44 45 46 47 48 49 50
532
ASUS46 KSTO 202215
RWRCA

NORTHERN AND CENTRAL CA REGIONAL WEATHER ROUNDUP
NATIONAL WEATHER SERVICE SACRAMENTO CA
200 PM PST FRI JAN 20 2017

NOTE: FAIR INDICATES FEW OR NO CLOUDS BELOW 12,000 FEET WITH NO
SIGNIFICANT WEATHER AND/OR OBSTRUCTIONS TO VISIBILITY.

CAZ001-003-202300-
NORTHWEST AREA

CITY           SKY/WX    TMP DP  RH WIND       PRES   REMARKS
CRESCENT CITY  CLOUDY    46  43  89 S14G25    29.13S
UKIAH          LGT RAIN  48  43  82 SE7       29.24S
$$

CAZ006-505>513-202300-
BAY AREA

CITY           SKY/WX    TMP DP  RH WIND       PRES   REMARKS
SANTA ROSA     PTSUNNY   52  43  71 SW13G21   29.26F
SAN RAFAEL     N/A       MM  MM  MM MISG
NAPA           PTSUNNY   55  45  68 SW17      29.29F
CONCORD        PTSUNNY   52  40  63 SW16      29.32S
OAKLAND CITY   N/A       MM  MM  MM MISG
OAKLAND        CLOUDY    52  45  77 W15       29.34S
SAN FRAN CITY  N/A       50  MM  77 MISG
SAN FRAN ARPT  LGT RAIN  53  42  66 SW17      29.34F
LIVERMORE      RAIN      50  43  77 SW13G33   29.32F
HAYWARD        LGT RAIN  49  42  77 MISG      29.34S
REDWOOD CITY   N/A       48  MM  96 MISG
MOFFETT ARPT   RAIN      49  43  80 W6        29.37R
SAN JOSE ARPT  LGT RAIN  51  43  74 W26G32    29.37R
$$
CAZ034-037-514>518-202300-
CENTRAL COAST

CITY           SKY/WX    TMP DP  RH WIND       PRES   REMARKS
WATSONVILLE    PTSUNNY   54  47  77 SW17      29.37S
SALINAS        PTSUNNY   57  42  57 SW22G28   29.38S
MONTEREY       PTSUNNY   55  45  68 SW14G25   29.39S
SAN LUIS OBISP LGT RAIN  54  49  83 S5        29.45F
SANTA MARIA    LGT RAIN  50  48  93 S5        29.49R FOG
$$
CAZ015-016-202300-
NORTHERN SACRAMENTO VALLEY

CITY           SKY/WX    TMP DP  RH WIND       PRES   REMARKS
REDDING        CLOUDY    47  44  90 S17       29.18F
RED BLUFF      CLOUDY    49  44  83 SE21G29   29.21F
OROVILLE       CLOUDY    50  45  83 SE17G25   29.27F
$$
CAZ016>018-202300-
SOUTHERN SACRAMENTO VALLEY

CITY           SKY/WX    TMP DP  RH WIND       PRES   REMARKS
AUBURN         CLOUDY    45  45 100 S8        29.29
BEALE AFB      PTSUNNY   51  51 100 S18       29.26F
LINCOLN        CLOUDY    52  43  71 S15G24    29.28S
MARYSVILLE     CLOUDY    52  46  80 S21       29.27F
SAC INTL ARPT  PTSUNNY   52  45  77 S18       29.27F
MATHER AIRPORT PTSUNNY   52  46  82 S10       29.30F
DOWNTOWN SAC   N/A       53  MM  MM MISG
SAC EXEC ARPT  PTSUNNY   51  46  83 S8        29.30F
VACAVILLE      PTSUNNY   55  46  71 S13       29.29F
TRAVIS AFB     PTSUNNY   53  43  71 SW18G26   29.28F
$$
CAZ019>021-202300-
SAN JOAQUIN VALLEY

CITY           SKY/WX    TMP DP  RH WIND       PRES   REMARKS
STOCKTON       LGT RAIN  51  45  79 W17       29.32F
MODESTO        LGT RAIN  56  44  64 SE6       29.33F
MERCED         LGT RAIN  52  46  80 W6G17     29.35F
LEMOORE        PTSUNNY   55  47  74 S9        29.38S
FRESNO         CLOUDY    53  46  77 S13       29.39S
HANFORD        CLOUDY    53  49  86 S16       29.40R
PORTERVILLE    CLOUDY    49  47  93 SE12      29.42F
BAKERSFIELD    RAIN      49  45  86 CALM      29.42F FOG
$$
CAZ011-012-071-202300-
NORTHERN MOUNTAINS

CITY           SKY/WX    TMP DP  RH WIND       PRES   REMARKS
YREKA          PTSUNNY   45  30  55 S16       29.09F
MOUNT SHASTA   PTSUNNY   35  32  88 VRB5      29.11F WCI  31
ALTURAS        CLOUDY    39  28  64 S15       29.11F WCI  31
$$
CAZ011-012-071-202300-
SIERRA NEVADA MTNS

CITY           SKY/WX    TMP DP  RH WIND       PRES   REMARKS
BLUE CANYON    LGT SNOW  30  29  96 S15G22    29.21F WCI  19
TRUCKEE        LGT SNOW  30  25  80 S16G26    29.18S WCI  19
TAHOE VLY ARPT PTSUNNY   32  23  69 S18G30    29.17F WCI  20
MAMMOTH LAKES  CLOUDY    32  21  64 CALM      29.22S
$$




USA.gov is the U.S. government's official web portal to all federal, state and local government web resources and services.